• en Suisse
  • Liste des pays
  • À 7 jours
  • Température de l'eau
  • Carte satellitaire
  • Carte météo
  • Widgets météo
  • user-avatar
    Se connecter

    Météo par heure à Krasnyy Kolos

    Ce jour, 26 Mai, Samedi

    Heure Température Précipitation Vent Pression Humidité
    00:00 +19°C° 0 mm 4 m/s 750 mmHg 90%
    01:00 +19°C° 0 mm 5 m/s 750 mmHg 90%
    02:00 +19°C° 0 mm 6 m/s 751 mmHg 89%
    03:00 +17°C° 0 mm 7 m/s 751 mmHg 89%
    04:00 +16°C° 0,1 mm 7 m/s 752 mmHg 87%
    05:00 +16°C° 0,1 mm 8 m/s 752 mmHg 84%
    06:00 +15°C° 0,1 mm 9 m/s 753 mmHg 81%
    07:00 +15°C° 0 mm 9 m/s 754 mmHg 77%
    08:00 +15°C° 0 mm 9 m/s 754 mmHg 73%
    09:00 +15°C° 0 mm 9 m/s 755 mmHg 69%
    10:00 +16°C° 0 mm 9 m/s 756 mmHg 65%
    11:00 +16°C° 0 mm 10 m/s 756 mmHg 60%
    12:00 +17°C° 0 mm 10 m/s 757 mmHg 56%
    13:00 +17°C° 0 mm 10 m/s 757 mmHg 54%
    14:00 +18°C° 0 mm 9 m/s 757 mmHg 52%
    15:00 +18°C° 0 mm 9 m/s 758 mmHg 50%
    16:00 +17°C° 0 mm 9 m/s 758 mmHg 51%
    17:00 +17°C° 0 mm 8 m/s 758 mmHg 53%
    18:00 +16°C° 0 mm 7 m/s 759 mmHg 55%
    19:00 +15°C° 0 mm 7 m/s 759 mmHg 55%
    20:00 +14°C° 0 mm 7 m/s 760 mmHg 55%
    21:00 +13°C° 0 mm 6 m/s 760 mmHg 55%
    22:00 +11°C° 0 mm 7 m/s 760 mmHg 54%
    23:00 +11°C° 0 mm 7 m/s 760 mmHg 54%

    Demain, 27 Mai, Dimanche

    Heure Température Précipitation Vent Pression Humidité
    00:00 +10°C° 0 mm 7 m/s 761 mmHg 53%
    01:00 +10°C° 0 mm 7 m/s 761 mmHg 54%
    02:00 +10°C° 0 mm 7 m/s 761 mmHg 55%
    03:00 +9°C° 0 mm 7 m/s 761 mmHg 55%
    04:00 +9°C° 0 mm 7 m/s 761 mmHg 58%
    05:00 +9°C° 0 mm 7 m/s 761 mmHg 61%
    06:00 +8°C° 0 mm 7 m/s 761 mmHg 63%
    07:00 +10°C° 0 mm 7 m/s 761 mmHg 60%
    08:00 +11°C° 0 mm 8 m/s 761 mmHg 57%
    09:00 +13°C° 0 mm 8 m/s 761 mmHg 55%
    10:00 +15°C° 0 mm 8 m/s 761 mmHg 53%
    11:00 +16°C° 0 mm 8 m/s 761 mmHg 51%
    12:00 +17°C° 0 mm 8 m/s 761 mmHg 49%
    13:00 +18°C° 0 mm 8 m/s 760 mmHg 49%
    14:00 +18°C° 0 mm 7 m/s 760 mmHg 48%
    15:00 +20°C° 0 mm 7 m/s 760 mmHg 48%
    16:00 +18°C° 0 mm 7 m/s 759 mmHg 51%
    17:00 +19°C° 0 mm 6 m/s 759 mmHg 54%
    18:00 +19°C° 0 mm 5 m/s 758 mmHg 57%
    19:00 +16°C° 0 mm 5 m/s 758 mmHg 58%
    20:00 +15°C° 0 mm 5 m/s 758 mmHg 60%
    21:00 +13°C° 0 mm 4 m/s 758 mmHg 62%
    22:00 +13°C° 0 mm 4 m/s 758 mmHg 60%
    23:00 +12°C° 0 mm 4 m/s 758 mmHg 59%

    Après-demain, 28 Mai, Lundi

    Heure Température Précipitation Vent Pression Humidité
    00:00 +12°C° 0 mm 4 m/s 758 mmHg 58%
    01:00 +11°C° 0 mm 4 m/s 758 mmHg 57%
    02:00 +11°C° 0 mm 4 m/s 758 mmHg 56%
    03:00 +10°C° 0 mm 4 m/s 758 mmHg 56%
    04:00 +10°C° 0 mm 4 m/s 758 mmHg 58%
    05:00 +10°C° 0 mm 4 m/s 758 mmHg 60%
    06:00 +10°C° 0 mm 4 m/s 758 mmHg 62%
    07:00 +12°C° 0 mm 5 m/s 758 mmHg 58%
    08:00 +14°C° 0 mm 5 m/s 758 mmHg 54%
    09:00 +17°C° 0 mm 6 m/s 758 mmHg 50%
    10:00 +19°C° 0 mm 6 m/s 758 mmHg 48%
    11:00 +20°C° 0 mm 6 m/s 758 mmHg 45%
    12:00 +22°C° 0 mm 6 m/s 758 mmHg 42%
    13:00 +22°C° 0 mm 6 m/s 757 mmHg 42%
    14:00 +23°C° 0 mm 5 m/s 757 mmHg 42%
    15:00 +23°C° 0 mm 5 m/s 757 mmHg 41%
    16:00 +23°C° 0 mm 4 m/s 757 mmHg 46%
    17:00 +23°C° 0 mm 4 m/s 757 mmHg 50%
    18:00 +22°C° 0 mm 3 m/s 757 mmHg 55%
    19:00 +20°C° 0 mm 3 m/s 757 mmHg 57%
    20:00 +19°C° 0 mm 3 m/s 757 mmHg 60%
    21:00 +17°C° 0 mm 3 m/s 757 mmHg 62%
    22:00 +16°C° 0 mm 3 m/s 757 mmHg 65%
    23:00 +15°C° 0 mm 4 m/s 757 mmHg 69%

    29 Mai, Mardi

    Heure Température Précipitation Vent Pression Humidité
    00:00 +15°C° 0 mm 4 m/s 757 mmHg 72%
    01:00 +14°C° 0 mm 4 m/s 757 mmHg 71%
    02:00 +14°C° 0 mm 5 m/s 758 mmHg 71%
    03:00 +14°C° 0 mm 5 m/s 758 mmHg 70%
    04:00 +14°C° 0 mm 5 m/s 758 mmHg 70%
    05:00 +13°C° 0 mm 6 m/s 758 mmHg 71%
    06:00 +13°C° 0 mm 6 m/s 758 mmHg 72%
    07:00 +14°C° 0 mm 6 m/s 759 mmHg 67%
    08:00 +16°C° 0 mm 7 m/s 759 mmHg 62%
    09:00 +17°C° 0 mm 7 m/s 759 mmHg 57%
    10:00 +18°C° 0 mm 7 m/s 759 mmHg 54%
    11:00 +20°C° 0 mm 7 m/s 759 mmHg 51%
    12:00 +20°C° 0 mm 7 m/s 758 mmHg 48%
    13:00 +21°C° 0 mm 7 m/s 758 mmHg 47%
    14:00 +21°C° 0 mm 7 m/s 758 mmHg 47%
    15:00 +21°C° 0 mm 7 m/s 758 mmHg 47%
    16:00 +21°C° 0 mm 7 m/s 758 mmHg 49%
    17:00 +20°C° 0 mm 6 m/s 758 mmHg 52%
    18:00 +19°C° 0 mm 6 m/s 757 mmHg 54%
    19:00 +17°C° 0 mm 5 m/s 758 mmHg 55%
    20:00 +16°C° 0 mm 5 m/s 758 mmHg 56%
    21:00 +14°C° 0 mm 4 m/s 758 mmHg 57%
    22:00 +14°C° 0 mm 5 m/s 758 mmHg 56%
    23:00 +13°C° 0 mm 5 m/s 758 mmHg 55%

    30 Mai, Mercredi

    Heure Température Précipitation Vent Pression Humidité
    00:00 +12°C° 0 mm 5 m/s 758 mmHg 54%
    01:00 +12°C° 0 mm 5 m/s 758 mmHg 55%
    02:00 +12°C° 0 mm 5 m/s 757 mmHg 55%
    03:00 +10°C° 0 mm 5 m/s 757 mmHg 55%
    04:00 +10°C° 0 mm 5 m/s 757 mmHg 58%
    05:00 +11°C° 0 mm 4 m/s 757 mmHg 61%
    06:00 +11°C° 0 mm 4 m/s 757 mmHg 64%
    07:00 +13°C° 0 mm 5 m/s 757 mmHg 59%
    08:00 +16°C° 0 mm 5 m/s 757 mmHg 53%
    09:00 +19°C° 0 mm 5 m/s 757 mmHg 48%
    10:00 +20°C° 0 mm 5 m/s 757 mmHg 47%
    11:00 +21°C° 0 mm 5 m/s 757 mmHg 45%
    12:00 +22°C° 0 mm 5 m/s 757 mmHg 44%
    13:00 +22°C° 0 mm 5 m/s 756 mmHg 44%
    14:00 +23°C° 0 mm 5 m/s 756 mmHg 44%
    15:00 +25°C° 0 mm 5 m/s 755 mmHg 43%
    16:00 +23°C° 0 mm 4 m/s 755 mmHg 47%
    17:00 +23°C° 0 mm 4 m/s 755 mmHg 51%
    18:00 +24°C° 0 mm 3 m/s 755 mmHg 55%
    19:00 +21°C° 0 mm 3 m/s 755 mmHg 57%
    20:00 +19°C° 0 mm 3 m/s 755 mmHg 60%
    21:00 +18°C° 0 mm 3 m/s 755 mmHg 63%
    22:00 +17°C° 0 mm 3 m/s 755 mmHg 63%
    23:00 +17°C° 0 mm 3 m/s 755 mmHg 64%

    31 Mai, Jeudi

    Heure Température Précipitation Vent Pression Humidité
    00:00 +16°C° 0 mm 3 m/s 754 mmHg 64%
    01:00 +16°C° 0 mm 3 m/s 754 mmHg 66%
    02:00 +14°C° 0 mm 3 m/s 754 mmHg 68%
    03:00 +14°C° 0 mm 3 m/s 754 mmHg 70%
    04:00 +14°C° 0 mm 3 m/s 754 mmHg 72%
    05:00 +16°C° 0 mm 3 m/s 754 mmHg 73%
    06:00 +16°C° 0 mm 2 m/s 754 mmHg 75%
    07:00 +18°C° 0 mm 3 m/s 754 mmHg 70%
    08:00 +20°C° 0 mm 3 m/s 754 mmHg 64%
    09:00 +22°C° 0 mm 4 m/s 754 mmHg 58%
    10:00 +23°C° 0 mm 4 m/s 754 mmHg 55%
    11:00 +25°C° 0 mm 4 m/s 753 mmHg 51%
    12:00 +26°C° 0 mm 4 m/s 753 mmHg 47%
    13:00 +27°C° 0 mm 3 m/s 753 mmHg 45%
    14:00 +27°C° 0 mm 3 m/s 752 mmHg 43%
    15:00 +28°C° 0 mm 3 m/s 752 mmHg 42%
    16:00 +28°C° 0 mm 2 m/s 751 mmHg 45%
    17:00 +27°C° 0 mm 2 m/s 751 mmHg 47%
    18:00 +27°C° 0 mm 2 m/s 751 mmHg 50%
    19:00 +25°C° 0 mm 2 m/s 751 mmHg 53%
    20:00 +23°C° 0 mm 1 m/s 751 mmHg 56%
    21:00 +21°C° 0 mm 1 m/s 751 mmHg 59%
    22:00 +21°C° 0 mm 1 m/s 751 mmHg 61%
    23:00 +20°C° 0 mm 2 m/s 751 mmHg 63%
    Voir plus